Regional Weather Roundup
Issued by NWS Newport/Morehead, NC

Current Version | Previous Version | Graphics & Text | Print | Product List | Glossary Off
Versions: 1 2 3 4 5 6 7 8 9 10 11 12 13 14 15 16 17 18 19 20 21 22 23 24 25 26 27 28 29 30 31 32 33 34 35 36 37 38 39 40 41 42 43 44 45 46 47 48 49 50

000
ASUS42 KMHX 161122
RWRMHX
WEATHER ROUNDUP FOR EASTERN NORTH CAROLINA
NATIONAL WEATHER SERVICE NEWPORT/MOREHEAD CITY NC
700 AM EDT WED APR 16 2014

NOTE: "FAIR" INDICATES FEW OR NO CLOUDS BELOW 12,000 FEET
WITH NO SIGNIFICANT WEATHER AND/OR OBSTRUCTIONS TO VISIBILITY

NCZ015>017-031-032-045>047-102-103-161200-
NORTH COAST

CITY           SKY/WX    TMP DP  RH WIND       PRES   REMARKS
EDENTON        CLEAR     35  28  75 N12G18    30.25R
ELIZABETH CITY CLEAR     37  26  64 NW17      30.23R
KITTY HAWK     CLOUDY    40  30  67 N14G28    30.17R
MANTEO         CLOUDY    40  30  67 N22G32    30.20R

$$

NCZ045>047-081-094-103-104-161200-
CENTRAL COAST

CITY           SKY/WX    TMP DP  RH WIND       PRES   REMARKS
FRISCO         CLOUDY    44  35  70 N16G35    30.14R
SWANQUARTER      N/A     37 N/A N/A N6G16     30.15R

$$

NCZ095-097-098-100-101-161200-
SOUTHERN COAST

CITY           SKY/WX    TMP DP  RH WIND       PRES   REMARKS
BEAUFORT       MOCLDY    40  31  70 N23G32    30.19R
CEDAR ISLAND     N/A     43 N/A N/A NW23G38   30.21R
JACKSONVILLE   CLEAR     38  32  79 N13       30.22R
NEWPORT          N/A     37  28  70 N12         N/A
PINEY ISLAND   CLOUDY    42  32  67 N24G33    30.20R
WILMINGTON     CLEAR     40  32  73 N10       30.22R


$$

NCZ011>013-027>030-043-044-078>080-089-090>093-098-161200-
COASTAL PLAIN

CITY           SKY/WX    TMP DP  RH WIND       PRES   REMARKS
AHOSKIE        CLEAR     33  25  72 N7        30.28R
CLINTON        CLOUDY    39  31  71 N10G16    30.26R
ELIZABETHTOWN  CLOUDY    39  31  71 N7        30.24R
GOLDSBORO      PTCLDY    37  25  62 N12G20    30.25R
GREENVILLE     PTCLDY    36  30  80 N8        30.27R
HAVELOCK       PTCLDY    38  28  67 N20G33    30.22R
KENANSVILLE    MOCLDY    37  29  72 N20G25    30.27R
KINSTON        CLEAR     36  28  75 N8G18     30.27R
NEW BERN       CLEAR     38  27  64 N14       30.24R
RICHLANDS      CLEAR     37  27  65 N14G24    30.25R
ROANOKE RAPIDS NOT AVBL
ROCKY MOUNT      N/A    N/A N/A N/A MISG      30.28R
WASHINGTON     CLEAR     38  28  69 N16G25    30.26R
WHITEVILLE     CLOUDY    39  29  66 N8        30.23R

$$

AMZ130-135-150-152-154-156-158-170-250-252-270-ANZ085-086-088-633-658-670-161200-
MARINE OBSERVATIONS

STATION/POSITION TIME  TEMP    WIND        PRES    WAVE   SWELL
                       AIR SEA DIR/SP/G            HT/PER HT/PER
                 (UTC) (F)     (DEG/KT/KT) (MB)    (FT/S) (FT/S)
CHESAPEAKE LIGHT 1100   39     360/ 28/ 30 1023.5
BUOY 44014       1100   43 55  360/ 29/ 37 1020.1   12/ 8
DUCK             1100      48  360/ 30/ 33 1020.9
2E DUCK          1100      47                N/A     9/ 7   2/11
OREGON INLET     1100      62  360/ 23/ 32 1021.4
BUOY 44095       1100      61                N/A    11/ 8   2/11
HATTERAS CG      1100   46 61   10/ 24/ 38 1020.9
DIAMOND BUOY     NOT AVBL
CAPE LOOKOUT     1100   42     350/ 25/ 30 1021.6
BEAUFORT LAB     1100   42 63  360/ 19/ 21 1021.7
30 SE NEW RIVER  1100   45 63   10/ 25/ 31 1021.2    8/ 6
5 SE WRIGHTSVILL 1100   43 60   20/ 27/ 31 1022.5
FRYING PAN BUOY  1100   48 66   20/ 29/ 37 1020.2    9/ 7
BUOY 41001       NOT AVBL
BUOY 41002       NOT AVBL
BUOY 41004       NOT AVBL

$$



USA.gov is the U.S. government's official web portal to all federal, state and local government web resources and services.